Starlink 32369

operational
NORAD ID: 60917 Int'l Des: 2024-154 Owner: SPXS Country: US Constellation: starlink
LEOCIRCULAR

关于 Starlink 32369

正在加载描述...

实时位置

正在加载3D地球...

即将过境

高度历史

Altitude vs Time

uPlot chart will show altitude changes over time

两行轨道根数

1 60917U 24154Q 25351.30044556 .00001471 00000-0 61783-4 0 9994
2 60917 53.1614 306.3330 0000998 107.7325 252.3785 15.30189142 73729
Epoch: Dec 17, 2025 • Age: 6 hours

当前状态

高度 476.7 km
速度 7.63 km/s
星下点 -4.51°S, 148.57°W
发射日期 Aug 31, 2024
运行时间 1.2 years
类型 internet

技术详情

分类 Payload
质量 730.00 kg
干质量 700.00 kg
总质量 730.00 kg
长度 0.30 m
直径 4.10 m
跨度 29.00 m
形状 Box + pan
制造商 SPXS
平台类型 Starlink V2M
阶段状态 In Orbit
所有者/国家 SPXS/US

大型星座

Loading constellations...